This demonstration page uses our WeatherBlox Daily Observations layout. Learn more.

Left ArrowRight Arrow

36.17497, -115.13722

Hourly Observations for March 30, 2019

Temp ( °F °C ) Dew Point ( °F °C ) Humidity (%) Winds ( mph kmh ) Pressure ( in mb ) Visibility ( mi km ) Precip ( " mm )
12:53 am 00:53 Clear 54 12.2 23 -5 30 30 WNW 6 9 30.14 1021 10 16 0.00 0.00
1:53 am 01:53 Clear 54 12.2 21 -6.1 28 28 Calm 30.15 1021 10 16 0.00 0.00
2:53 am 02:53 Clear 55 12.8 19 -7.2 24 24 Calm 30.15 1021 10 16 0.00 0.00
3:53 am 03:53 Clear 51 10.6 20 -6.7 29 29 N 3 6 30.16 1022 10 16 0.00 0.00
4:53 am 04:53 Clear 51 10.6 21 -6.1 31 31 NW 5 7 30.19 1022 10 16 0.00 0.00
5:53 am 05:53 Clear 51 10.6 21 -6.1 31 31 Calm 30.21 1023 10 16 0.00 0.00
6:53 am 06:53 Sunny 52 11.1 20 -6.7 28 28 N 7 11 30.22 1023 10 16 0.00 0.00
7:53 am 07:53 Sunny 57 13.9 21 -6.1 25 25 N 6 9 30.23 1024 10 16 0.00 0.00
8:53 am 08:53 Sunny 60 15.6 22 -5.6 23 23 N 8 13 30.23 1024 10 16 0.00 0.00
9:53 am 09:53 Sunny 61 16.1 21 -6.1 21 21 E 3 6 30.24 1024 10 16 0.00 0.00
10:53 am 10:53 Sunny 64 17.8 21 -6.1 19 19 ENE 5 7 30.23 1024 10 16 0.00 0.00
11:53 am 11:53 Sunny 64 17.8 20 -6.7 18 18 SSE 7 11 30.21 1023 10 16 0.00 0.00
12:53 pm 12:53 Sunny 67 19.4 18 -7.8 15 15 VRB 5 7 30.18 1022 10 16 0.00 0.00
1:53 pm 13:53 Sunny 67 19.4 17 -8.3 15 15 S 8 13 30.15 1021 10 16 0.00 0.00
2:53 pm 14:53 Sunny 68 20 18 -7.8 15 15 SE 10 17 30.11 1020 10 16 0.00 0.00
3:53 pm 15:53 Sunny 69 20.6 18 -7.8 14 14 SE 8 13 30.09 1019 10 16 0.00 0.00
4:53 pm 16:53 Sunny 69 20.6 19 -7.2 15 15 VRB 5 7 30.09 1019 10 16 0.00 0.00
5:53 pm 17:53 Sunny 70 21.1 18 -7.8 14 14 Calm 30.08 1019 10 16 0.00 0.00
6:53 pm 18:53 Sunny 67 19.4 16 -8.9 14 14 E 10 17 30.09 1019 10 16 0.00 0.00
7:53 pm 19:53 Clear 65 18.3 20 -6.7 18 18 ESE 7 11 30.11 1020 10 16 0.00 0.00
8:53 pm 20:53 Clear 64 17.8 20 -6.7 18 18 ENE 3 6 30.14 1021 10 16 0.00 0.00
9:53 pm 21:53 Clear 60 15.6 20 -6.7 21 21 E 8 13 30.14 1021 10 16 0.00 0.00
10:53 pm 22:53 Clear 61 16.1 19 -7.2 20 20 E 10 17 30.14 1021 10 16 0.00 0.00
11:53 pm 23:53 Clear 61 16.1 21 -6.1 21 21 E 13 20 30.14 1021 10 16 0.00 0.00

Powered by AerisWeather